Location: Unspecified
(0.0000°N, 0.0000°E)
Time: 13:49:43
(UTC+00:00)

METEOR-M - Visible Passes

Search period start: 25 April 2019 00:00
Search period end: 05 May 2019 00:00
Orbit: 816 x 819 km, 98.4° (Epoch: 25 April)

Date Brightness Start Highest point End Pass type
(mag) Time Alt. Az. Time Alt. Az. Time Alt. Az.
25 Apr 7.1 04:17:54 10° E 04:20:00 12° ESE 04:22:06 10° SE visible
25 Apr 7.1 18:36:20 10° SW 18:39:01 14° WSW 18:41:43 10° WNW visible
27 Apr 4.7 05:11:49 10° NNE 05:17:05 61° ESE 05:22:21 10° S visible
28 Apr 5.8 04:50:58 10° NE 04:55:44 34° ESE 05:00:31 10° SSE visible
29 Apr 6.7 04:30:43 10° ENE 04:34:25 19° ESE 04:38:07 10° SSE visible
30 Apr 6.9 18:28:47 10° SW 18:32:07 17° WSW 18:35:27 10° WNW visible
01 May 4.2 05:26:10 10° NNE 05:31:30 89° WNW 05:36:52 10° SSW visible
02 May 5.1 05:05:01 10° NNE 05:10:10 51° ESE 05:15:21 10° S visible
03 May 6.1 04:44:18 10° NE 04:48:50 29° ESE 04:53:22 10° SSE visible
04 May 6.9 04:24:20 10° ENE 04:27:31 16° ESE 04:30:41 10° SE visible
04 May 7.3 18:45:26 10° WSW 18:46:31 11° WSW 18:47:37 10° W visible
